Time,TemperatureF,DewpointF,PressureIn,WindDirection,WindDirectionDegrees,WindSpeedMPH,WindSpeedGustMPH,Humidity,HourlyPrecipIn,Conditions,Clouds,dailyrainin,SoftwareType,DateUTC
2013-06-14 00:02:00,75.1,17.0,29.47,SSW,200,2.0,9.0,11,0.00,,,0.00,Wunderground v.1.15,2013-06-14 06:02:00,
2013-06-14 00:07:00,75.8,19.5,29.47,SSW,193,0.0,9.0,12,0.00,,,0.00,Wunderground v.1.15,2013-06-14 06:07:00,
2013-06-14 00:12:00,75.1,19.0,29.47,SSW,193,0.0,2.0,12,0.00,,,0.00,Wunderground v.1.15,2013-06-14 06:12:00,
2013-06-14 00:17:00,73.9,21.7,29.47,SSW,193,0.0,2.0,14,0.00,,,0.00,Wunderground v.1.15,2013-06-14 06:17:00,
2013-06-14 00:22:00,73.9,23.3,29.47,SSW,211,3.0,5.0,15,0.00,,,0.00,Wunderground v.1.15,2013-06-14 06:22:00,
2013-06-14 00:27:00,74.0,13.9,29.46,South,188,11.0,15.0,10,0.00,,,0.00,Wunderground v.1.15,2013-06-14 06:27:00,
2013-06-14 00:32:00,77.0,13.8,29.46,South,186,0.0,5.0,9,0.00,,,0.00,Wunderground v.1.15,2013-06-14 06:32:00,
2013-06-14 00:37:00,77.7,11.6,29.46,South,178,5.0,7.0,8,0.00,,,0.00,Wunderground v.1.15,2013-06-14 06:37:00,
2013-06-14 00:42:00,78.5,9.2,29.45,South,169,0.0,7.0,7,0.00,,,0.00,Wunderground v.1.15,2013-06-14 06:42:00,
2013-06-14 00:47:00,79.0,9.6,29.45,SSW,202,5.0,12.0,7,0.00,,,0.00,Wunderground v.1.15,2013-06-14 06:47:00,
2013-06-14 00:52:00,79.6,10.0,29.45,SSW,196,3.0,9.0,7,0.00,,,0.00,Wunderground v.1.15,2013-06-14 06:52:00,
2013-06-14 00:57:00,79.6,10.0,29.44,South,188,3.0,11.0,7,0.00,,,0.00,Wunderground v.1.15,2013-06-14 06:57:00,
2013-06-14 01:02:00,79.9,6.8,29.44,SSW,211,7.0,11.0,6,0.00,,,0.00,Wunderground v.1.15,2013-06-14 07:02:00,
2013-06-14 01:07:00,79.8,6.8,29.44,SSW,204,6.0,11.0,6,0.00,,,0.00,Wunderground v.1.15,2013-06-14 07:07:00,
2013-06-14 01:12:00,79.4,6.5,29.45,SW,225,2.0,13.0,6,0.00,,,0.00,Wunderground v.1.15,2013-06-14 07:12:00,
2013-06-14 01:17:00,78.8,6.0,29.45,SW,221,5.0,14.0,6,0.00,,,0.00,Wunderground v.1.15,2013-06-14 07:17:00,
2013-06-14 01:22:00,78.5,5.8,29.45,SW,230,9.0,11.0,6,0.00,,,0.00,Wunderground v.1.15,2013-06-14 07:22:00,
2013-06-14 01:27:00,78.1,5.5,29.47,SSW,212,5.0,12.0,6,0.00,,,0.00,Wunderground v.1.15,2013-06-14 07:27:00,
2013-06-14 01:32:00,77.9,5.4,29.47,SSW,200,1.0,12.0,6,0.00,,,0.00,Wunderground v.1.15,2013-06-14 07:32:00,
2013-06-14 01:37:00,77.4,5.0,29.47,SW,222,4.0,12.0,6,0.00,,,0.00,Wunderground v.1.15,2013-06-14 07:37:00,
2013-06-14 01:42:00,76.8,8.0,29.46,SW,221,3.0,7.0,7,0.00,,,0.00,Wunderground v.1.15,2013-06-14 07:42:00,
2013-06-14 01:47:00,76.5,7.8,29.46,SW,219,0.0,10.0,7,0.00,,,0.00,Wunderground v.1.15,2013-06-14 07:47:00,
2013-06-14 01:52:00,76.3,4.2,29.46,SW,217,2.0,7.0,6,0.00,,,0.00,Wunderground v.1.15,2013-06-14 07:52:00,
2013-06-14 01:57:00,76.7,4.5,29.48,SSW,206,3.0,11.0,6,0.00,,,0.00,Wunderground v.1.15,2013-06-14 07:57:00,
2013-06-14 02:02:00,77.0,4.7,29.48,SW,232,1.0,11.0,6,0.00,,,0.00,Wunderground v.1.15,2013-06-14 08:02:00,
2013-06-14 02:07:00,77.2,4.9,29.48,SSW,201,3.0,11.0,6,0.00,,,0.00,Wunderground v.1.15,2013-06-14 08:07:00,
2013-06-14 02:12:00,77.2,4.9,29.47,SSW,206,6.0,14.0,6,0.00,,,0.00,Wunderground v.1.15,2013-06-14 08:12:00,
2013-06-14 02:17:00,77.0,4.7,29.47,SW,229,3.0,14.0,6,0.00,,,0.00,Wunderground v.1.15,2013-06-14 08:17:00,
2013-06-14 02:22:00,76.7,4.5,29.47,South,191,6.0,9.0,6,0.00,,,0.00,Wunderground v.1.15,2013-06-14 08:22:00,
2013-06-14 02:27:00,76.7,4.5,29.48,SSE,168,7.0,14.0,6,0.00,,,0.00,Wunderground v.1.15,2013-06-14 08:27:00,
2013-06-14 02:32:00,76.7,4.5,29.48,SW,218,4.0,10.0,6,0.00,,,0.00,Wunderground v.1.15,2013-06-14 08:32:00,
2013-06-14 02:37:00,76.8,4.6,29.48,SW,223,5.0,12.0,6,0.00,,,0.00,Wunderground v.1.15,2013-06-14 08:37:00,
2013-06-14 02:42:00,76.5,4.4,29.48,SSW,205,0.0,10.0,6,0.00,,,0.00,Wunderground v.1.15,2013-06-14 08:42:00,
2013-06-14 02:47:00,76.8,4.6,29.48,South,170,12.0,14.0,6,0.00,,,0.00,Wunderground v.1.15,2013-06-14 08:47:00,
2013-06-14 02:52:00,77.0,4.7,29.48,SSE,163,1.0,9.0,6,0.00,,,0.00,Wunderground v.1.15,2013-06-14 08:52:00,
2013-06-14 02:57:00,76.3,4.2,29.48,SSW,202,6.0,10.0,6,0.00,,,0.00,Wunderground v.1.15,2013-06-14 08:57:00,
2013-06-14 03:02:00,75.4,3.6,29.48,South,189,2.0,7.0,6,0.00,,,0.00,Wunderground v.1.15,2013-06-14 09:02:00,
2013-06-14 03:07:00,74.7,6.4,29.48,South,171,0.0,7.0,7,0.00,,,0.00,Wunderground v.1.15,2013-06-14 09:07:00,
2013-06-14 03:12:00,74.9,3.2,29.49,SSW,192,4.0,16.0,6,0.00,,,0.00,Wunderground v.1.15,2013-06-14 09:12:00,
2013-06-14 03:17:00,75.4,7.0,29.49,South,190,0.0,16.0,7,0.00,,,0.00,Wunderground v.1.15,2013-06-14 09:17:00,
2013-06-14 03:22:00,75.1,6.7,29.49,South,189,0.0,2.0,7,0.00,,,0.00,Wunderground v.1.15,2013-06-14 09:22:00,
2013-06-14 03:27:00,74.2,9.0,29.49,South,189,0.0,2.0,8,0.00,,,0.00,Wunderground v.1.15,2013-06-14 09:27:00,
2013-06-14 03:32:00,72.7,7.9,29.49,South,189,0.0,0.0,8,0.00,,,0.00,Wunderground v.1.15,2013-06-14 09:32:00,
2013-06-14 03:37:00,70.9,17.5,29.49,South,189,0.0,0.0,13,0.00,,,0.00,Wunderground v.1.15,2013-06-14 09:37:00,
2013-06-14 03:42:00,67.9,13.3,29.51,South,189,0.0,0.0,12,0.00,,,0.00,Wunderground v.1.15,2013-06-14 09:42:00,
2013-06-14 03:47:00,65.3,14.8,29.51,South,189,0.0,0.0,14,0.00,,,0.00,Wunderground v.1.15,2013-06-14 09:47:00,
2013-06-14 03:52:00,63.1,21.3,29.51,South,189,0.0,0.0,20,0.00,,,0.00,Wunderground v.1.15,2013-06-14 09:52:00,
2013-06-14 03:57:00,61.6,18.9,29.55,South,189,0.0,0.0,19,0.00,,,0.00,Wunderground v.1.15,2013-06-14 09:57:00,
2013-06-14 04:02:00,60.4,22.4,29.55,SW,232,0.0,4.0,23,0.00,,,0.00,Wunderground v.1.15,2013-06-14 10:02:00,
2013-06-14 04:07:00,59.5,20.6,29.55,SW,232,0.0,4.0,22,0.00,,,0.00,Wunderground v.1.15,2013-06-14 10:07:00,
2013-06-14 04:12:00,58.9,23.1,29.57,SW,232,0.0,0.0,25,0.00,,,0.00,Wunderground v.1.15,2013-06-14 10:12:00,
2013-06-14 04:17:00,57.2,22.6,29.57,SW,232,0.0,0.0,26,0.00,,,0.00,Wunderground v.1.15,2013-06-14 10:17:00,
2013-06-14 04:22:00,56.5,22.9,29.57,SW,232,0.0,0.0,27,0.00,,,0.00,Wunderground v.1.15,2013-06-14 10:22:00,
2013-06-14 04:27:00,56.5,23.7,29.59,SW,232,0.0,0.0,28,0.00,,,0.00,Wunderground v.1.15,2013-06-14 10:27:00,
2013-06-14 04:32:00,56.2,23.5,29.59,SW,232,0.0,0.0,28,0.00,,,0.00,Wunderground v.1.15,2013-06-14 10:32:00,
2013-06-14 04:37:00,55.6,23.8,29.59,SW,232,0.0,0.0,29,0.00,,,0.00,Wunderground v.1.15,2013-06-14 10:37:00,
2013-06-14 04:42:00,54.7,23.8,29.60,SW,232,0.0,0.0,30,0.00,,,0.00,Wunderground v.1.15,2013-06-14 10:42:00,
2013-06-14 04:47:00,53.6,25.9,29.60,SW,232,0.0,0.0,34,0.00,,,0.00,Wunderground v.1.15,2013-06-14 10:47:00,
2013-06-14 04:52:00,52.3,26.1,29.60,SW,232,0.0,0.0,36,0.00,,,0.00,Wunderground v.1.15,2013-06-14 10:52:00,
2013-06-14 04:57:00,51.6,28.0,29.61,SW,232,0.0,0.0,40,0.00,,,0.00,Wunderground v.1.15,2013-06-14 10:57:00,
2013-06-14 05:02:00,51.3,30.1,29.61,SW,232,0.0,0.0,44,0.00,,,0.00,Wunderground v.1.15,2013-06-14 11:02:00,
2013-06-14 05:07:00,50.4,27.6,29.61,SW,231,0.0,4.0,41,0.00,,,0.00,Wunderground v.1.15,2013-06-14 11:07:00,
2013-06-14 05:12:00,49.8,27.0,29.63,SW,231,0.0,0.0,41,0.00,,,0.00,Wunderground v.1.15,2013-06-14 11:12:00,
2013-06-14 05:17:00,49.4,27.8,29.63,SW,231,0.0,0.0,43,0.00,,,0.00,Wunderground v.1.15,2013-06-14 11:17:00,
2013-06-14 05:22:00,48.8,27.8,29.63,SW,231,0.0,0.0,44,0.00,,,0.00,Wunderground v.1.15,2013-06-14 11:22:00,
2013-06-14 05:27:00,48.5,28.1,29.64,SW,231,0.0,0.0,45,0.00,,,0.00,Wunderground v.1.15,2013-06-14 11:27:00,
2013-06-14 05:32:00,48.3,29.5,29.64,SW,231,0.0,0.0,48,0.00,,,0.00,Wunderground v.1.15,2013-06-14 11:32:00,
2013-06-14 05:37:00,48.0,27.1,29.64,SW,231,0.0,0.0,44,0.00,,,0.00,Wunderground v.1.15,2013-06-14 11:37:00,
2013-06-14 05:42:00,47.9,28.1,29.65,SW,231,0.0,0.0,46,0.00,,,0.00,Wunderground v.1.15,2013-06-14 11:42:00,
2013-06-14 05:47:00,47.7,26.8,29.65,SW,231,0.0,0.0,44,0.00,,,0.00,Wunderground v.1.15,2013-06-14 11:47:00,
2013-06-14 05:52:00,47.1,27.9,29.65,SW,231,0.0,0.0,47,0.00,,,0.00,Wunderground v.1.15,2013-06-14 11:52:00,
2013-06-14 05:57:00,46.7,28.0,29.67,SW,231,0.0,0.0,48,0.00,,,0.00,Wunderground v.1.15,2013-06-14 11:57:00,
2013-06-14 06:02:00,46.5,28.8,29.67,SW,231,0.0,0.0,50,0.00,,,0.00,Wunderground v.1.15,2013-06-14 12:02:00,
2013-06-14 06:07:00,46.4,29.7,29.67,SW,231,0.0,0.0,52,0.00,,,0.00,Wunderground v.1.15,2013-06-14 12:07:00,
2013-06-14 06:12:00,46.2,30.0,29.68,SW,231,0.0,0.0,53,0.00,,,0.00,Wunderground v.1.15,2013-06-14 12:12:00,
2013-06-14 06:17:00,46.0,29.8,29.68,SW,231,0.0,0.0,53,0.00,,,0.00,Wunderground v.1.15,2013-06-14 12:17:00,
2013-06-14 06:22:00,46.4,31.1,29.68,SW,231,0.0,0.0,55,0.00,,,0.00,Wunderground v.1.15,2013-06-14 12:22:00,
2013-06-14 06:27:00,47.0,30.7,29.69,SW,231,0.0,0.0,53,0.00,,,0.00,Wunderground v.1.15,2013-06-14 12:27:00,
2013-06-14 06:32:00,47.7,31.4,29.69,SW,231,0.0,0.0,53,0.00,,,0.00,Wunderground v.1.15,2013-06-14 12:32:00,
2013-06-14 06:37:00,48.3,31.9,29.69,SW,231,0.0,0.0,53,0.00,,,0.00,Wunderground v.1.15,2013-06-14 12:37:00,
2013-06-14 06:42:00,49.5,32.6,29.68,SW,231,0.0,0.0,52,0.00,,,0.00,Wunderground v.1.15,2013-06-14 12:42:00,
2013-06-14 06:47:00,50.8,29.6,29.68,SW,231,0.0,0.0,44,0.00,,,0.00,Wunderground v.1.15,2013-06-14 12:47:00,
2013-06-14 06:52:00,52.0,30.7,29.68,SW,231,0.0,0.0,44,0.00,,,0.00,Wunderground v.1.15,2013-06-14 12:52:00,
2013-06-14 06:57:00,53.3,29.6,29.66,SW,231,0.0,0.0,40,0.00,,,0.00,Wunderground v.1.15,2013-06-14 12:57:00,
2013-06-14 07:02:00,54.5,33.0,29.66,SW,231,0.0,0.0,44,0.00,,,0.00,Wunderground v.1.15,2013-06-14 13:02:00,
2013-06-14 07:07:00,55.7,31.7,29.66,SW,231,0.0,0.0,40,0.00,,,0.00,Wunderground v.1.15,2013-06-14 13:07:00,
2013-06-14 07:12:00,57.2,31.8,29.65,SW,231,0.0,0.0,38,0.00,,,0.00,Wunderground v.1.15,2013-06-14 13:12:00,
2013-06-14 07:17:00,58.4,31.5,29.65,SW,231,0.0,0.0,36,0.00,,,0.00,Wunderground v.1.15,2013-06-14 13:17:00,
2013-06-14 07:22:00,59.8,32.1,29.65,SW,231,0.0,0.0,35,0.00,,,0.00,Wunderground v.1.15,2013-06-14 13:22:00,
2013-06-14 07:27:00,61.2,27.8,29.65,SW,230,0.0,0.0,28,0.00,,,0.00,Wunderground v.1.15,2013-06-14 13:27:00,
2013-06-14 07:32:00,62.4,29.7,29.65,SW,230,0.0,0.0,29,0.00,,,0.00,Wunderground v.1.15,2013-06-14 13:32:00,
2013-06-14 07:37:00,63.5,29.8,29.65,SW,230,0.0,0.0,28,0.00,,,0.00,Wunderground v.1.15,2013-06-14 13:37:00,
2013-06-14 07:43:00,64.8,25.0,29.63,SW,230,0.0,2.0,22,0.00,,,0.00,Wunderground v.1.15,2013-06-14 13:43:00,
2013-06-14 07:48:00,65.8,23.6,29.63,SW,230,0.0,2.0,20,0.00,,,0.00,Wunderground v.1.15,2013-06-14 13:48:00,
2013-06-14 07:53:00,66.9,24.5,29.63,SW,230,0.0,0.0,20,0.00,,,0.00,Wunderground v.1.15,2013-06-14 13:53:00,
2013-06-14 07:58:00,67.9,26.5,29.63,SSW,197,0.0,0.0,21,0.00,,,0.00,Wunderground v.1.15,2013-06-14 13:58:00,
2013-06-14 08:03:00,68.8,32.5,29.63,SSW,197,0.0,0.0,26,0.00,,,0.00,Wunderground v.1.15,2013-06-14 14:03:00,
2013-06-14 08:08:00,69.6,33.2,29.63,SSW,197,0.0,0.0,26,0.00,,,0.00,Wunderground v.1.15,2013-06-14 14:08:00,
2013-06-14 08:13:00,70.3,32.8,29.61,SSW,197,0.0,0.0,25,0.00,,,0.00,Wunderground v.1.15,2013-06-14 14:13:00,
2013-06-14 08:18:00,70.9,31.2,29.61,SSW,197,0.0,0.0,23,0.00,,,0.00,Wunderground v.1.15,2013-06-14 14:18:00,
2013-06-14 08:23:00,71.6,30.7,29.61,SSW,198,0.0,1.0,22,0.00,,,0.00,Wunderground v.1.15,2013-06-14 14:23:00,
2013-06-14 08:28:00,71.8,34.1,29.63,SSW,198,0.0,1.0,25,0.00,,,0.00,Wunderground v.1.15,2013-06-14 14:28:00,
2013-06-14 08:33:00,72.0,34.2,29.63,SSW,198,0.0,0.0,25,0.00,,,0.00,Wunderground v.1.15,2013-06-14 14:33:00,
2013-06-14 08:38:00,72.3,35.5,29.63,SSW,198,0.0,2.0,26,0.00,,,0.00,Wunderground v.1.15,2013-06-14 14:38:00,
2013-06-14 08:43:00,72.3,34.5,29.63,SSW,198,0.0,1.0,25,0.00,,,0.00,Wunderground v.1.15,2013-06-14 14:43:00,
2013-06-14 08:48:00,72.1,36.3,29.63,SSW,199,0.0,1.0,27,0.00,,,0.00,Wunderground v.1.15,2013-06-14 14:48:00,
2013-06-14 08:53:00,72.7,33.8,29.63,SSW,198,0.0,0.0,24,0.00,,,0.00,Wunderground v.1.15,2013-06-14 14:53:00,
2013-06-14 08:58:00,73.5,35.5,29.62,SSW,199,0.0,1.0,25,0.00,,,0.00,Wunderground v.1.15,2013-06-14 14:58:00,
2013-06-14 09:03:00,74.0,32.7,29.62,SSW,199,0.0,0.0,22,0.00,,,0.00,Wunderground v.1.15,2013-06-14 15:03:00,
2013-06-14 09:08:00,74.0,29.1,29.62,SSW,199,0.0,1.0,19,0.00,,,0.00,Wunderground v.1.15,2013-06-14 15:08:00,
2013-06-14 09:13:00,74.4,31.9,29.63,SSW,199,0.0,0.0,21,0.00,,,0.00,Wunderground v.1.15,2013-06-14 15:13:00,
2013-06-14 09:18:00,75.1,27.3,29.63,SSW,199,0.0,0.0,17,0.00,,,0.00,Wunderground v.1.15,2013-06-14 15:18:00,
2013-06-14 09:23:00,76.0,29.4,29.63,SSW,199,0.0,0.0,18,0.00,,,0.00,Wunderground v.1.15,2013-06-14 15:23:00,
2013-06-14 09:28:00,76.3,28.3,29.63,SSW,198,0.0,0.0,17,0.00,,,0.00,Wunderground v.1.15,2013-06-14 15:28:00,
2013-06-14 09:33:00,77.0,27.3,29.63,SSW,198,0.0,0.0,16,0.00,,,0.00,Wunderground v.1.15,2013-06-14 15:33:00,
2013-06-14 09:38:00,77.6,30.7,29.63,SSW,199,0.0,0.0,18,0.00,,,0.00,Wunderground v.1.15,2013-06-14 15:38:00,
2013-06-14 09:43:00,78.1,26.7,29.61,SSW,199,0.0,0.0,15,0.00,,,0.00,Wunderground v.1.15,2013-06-14 15:43:00,
2013-06-14 09:48:00,78.8,28.8,29.61,SSW,199,0.0,0.0,16,0.00,,,0.00,Wunderground v.1.15,2013-06-14 15:48:00,
2013-06-14 09:53:00,79.0,25.7,29.61,NW,304,0.0,4.0,14,0.00,,,0.00,Wunderground v.1.15,2013-06-14 15:53:00,
2013-06-14 09:58:00,78.8,23.8,29.61,North,355,3.0,4.0,13,0.00,,,0.00,Wunderground v.1.15,2013-06-14 15:58:00,
2013-06-14 10:03:00,78.8,23.8,29.61,North,5,0.0,4.0,13,0.00,,,0.00,Wunderground v.1.15,2013-06-14 16:03:00,
2013-06-14 10:08:00,79.2,25.9,29.61,North,5,0.0,4.0,14,0.00,,,0.00,Wunderground v.1.15,2013-06-14 16:08:00,
2013-06-14 10:13:00,79.6,26.2,29.61,NNW,336,6.0,7.0,14,0.00,,,0.00,Wunderground v.1.15,2013-06-14 16:13:00,
2013-06-14 10:18:00,79.9,28.1,29.61,NNW,343,3.0,7.0,15,0.00,,,0.00,Wunderground v.1.15,2013-06-14 16:18:00,
2013-06-14 10:23:00,80.3,26.7,29.61,North,5,5.0,5.0,14,0.00,,,0.00,Wunderground v.1.15,2013-06-14 16:23:00,
2013-06-14 10:28:00,80.1,28.3,29.61,NNW,340,0.0,7.0,15,0.00,,,0.00,Wunderground v.1.15,2013-06-14 16:28:00,
2013-06-14 10:33:00,80.5,26.9,29.61,NNW,344,5.0,11.0,14,0.00,,,0.00,Wunderground v.1.15,2013-06-14 16:33:00,
2013-06-14 10:38:00,80.3,26.7,29.61,North,351,7.0,11.0,14,0.00,,,0.00,Wunderground v.1.15,2013-06-14 16:38:00,
2013-06-14 10:43:00,80.3,28.4,29.61,North,355,1.0,4.0,15,0.00,,,0.00,Wunderground v.1.15,2013-06-14 16:43:00,
2013-06-14 10:48:00,80.5,28.6,29.61,WNW,296,3.0,6.0,15,0.00,,,0.00,Wunderground v.1.15,2013-06-14 16:48:00,
2013-06-14 10:53:00,80.9,27.2,29.61,NNW,327,4.0,6.0,14,0.00,,,0.00,Wunderground v.1.15,2013-06-14 16:53:00,
2013-06-14 10:58:00,81.6,31.0,29.59,NW,310,5.0,8.0,16,0.00,,,0.00,Wunderground v.1.15,2013-06-14 16:58:00,
2013-06-14 11:03:00,82.2,29.9,29.59,WNW,294,2.0,5.0,15,0.00,,,0.00,Wunderground v.1.15,2013-06-14 17:03:00,
2013-06-14 11:08:00,82.4,28.4,29.59,NW,320,5.0,7.0,14,0.00,,,0.00,Wunderground v.1.15,2013-06-14 17:08:00,
2013-06-14 11:13:00,82.6,28.6,29.58,NNW,346,7.0,7.0,14,0.00,,,0.00,Wunderground v.1.15,2013-06-14 17:13:00,
2013-06-14 11:18:00,82.8,28.7,29.58,North,350,7.0,10.0,14,0.00,,,0.00,Wunderground v.1.15,2013-06-14 17:18:00,
2013-06-14 11:23:00,82.6,28.6,29.58,North,355,5.0,9.0,14,0.00,,,0.00,Wunderground v.1.15,2013-06-14 17:23:00,
2013-06-14 11:28:00,82.6,24.8,29.61,North,355,0.0,9.0,12,0.00,,,0.00,Wunderground v.1.15,2013-06-14 17:28:00,
2013-06-14 11:33:00,83.0,23.0,29.61,NNE,30,2.0,9.0,11,0.00,,,0.00,Wunderground v.1.15,2013-06-14 17:33:00,
2013-06-14 11:38:00,83.2,25.3,29.61,NNW,343,0.0,9.0,12,0.00,,,0.00,Wunderground v.1.15,2013-06-14 17:38:00,
2013-06-14 11:43:00,83.8,21.4,29.61,North,11,5.0,9.0,10,0.00,,,0.00,Wunderground v.1.15,2013-06-14 17:43:00,
2013-06-14 11:48:00,84.0,25.9,29.61,NNW,333,3.0,9.0,12,0.00,,,0.00,Wunderground v.1.15,2013-06-14 17:48:00,
2013-06-14 11:53:00,84.5,24.2,29.61,NNW,339,0.0,6.0,11,0.00,,,0.00,Wunderground v.1.15,2013-06-14 17:53:00,
2013-06-14 11:58:00,84.9,22.2,29.60,North,355,3.0,7.0,10,0.00,,,0.00,Wunderground v.1.15,2013-06-14 17:58:00,
2013-06-14 12:03:00,85.1,26.8,29.60,NNW,342,0.0,5.0,12,0.00,,,0.00,Wunderground v.1.15,2013-06-14 18:03:00,
2013-06-14 12:08:00,85.5,25.0,29.60,West,273,3.0,10.0,11,0.00,,,0.00,Wunderground v.1.15,2013-06-14 18:08:00,
2013-06-14 12:13:00,85.7,25.1,29.59,NNE,13,0.0,5.0,11,0.00,,,0.00,Wunderground v.1.15,2013-06-14 18:13:00,
2013-06-14 12:18:00,85.9,23.0,29.59,North,10,0.0,5.0,10,0.00,,,0.00,Wunderground v.1.15,2013-06-14 18:18:00,
2013-06-14 12:23:00,86.7,25.9,29.59,NW,308,6.0,7.0,11,0.00,,,0.00,Wunderground v.1.15,2013-06-14 18:23:00,
2013-06-14 12:28:00,86.7,25.9,29.56,NNE,12,7.0,13.0,11,0.00,,,0.00,Wunderground v.1.15,2013-06-14 18:28:00,
2013-06-14 12:33:00,86.3,23.3,29.56,NNE,24,0.0,4.0,10,0.00,,,0.00,Wunderground v.1.15,2013-06-14 18:33:00,
2013-06-14 12:38:00,87.4,28.5,29.56,North,360,11.0,12.0,12,0.00,,,0.00,Wunderground v.1.15,2013-06-14 18:38:00,
2013-06-14 12:43:00,87.2,24.0,29.56,North,5,0.0,7.0,10,0.00,,,0.00,Wunderground v.1.15,2013-06-14 18:43:00,
2013-06-14 12:48:00,87.2,24.0,29.56,WNW,283,4.0,9.0,10,0.00,,,0.00,Wunderground v.1.15,2013-06-14 18:48:00,
2013-06-14 12:53:00,87.4,26.4,29.56,WNW,282,1.0,7.0,11,0.00,,,0.00,Wunderground v.1.15,2013-06-14 18:53:00,
2013-06-14 12:58:00,87.6,21.8,29.55,North,5,4.0,10.0,9,0.00,,,0.00,Wunderground v.1.15,2013-06-14 18:58:00,
2013-06-14 13:03:00,88.0,22.1,29.55,NW,313,11.0,11.0,9,0.00,,,0.00,Wunderground v.1.15,2013-06-14 19:03:00,
2013-06-14 13:08:00,88.6,25.0,29.55,NNW,336,1.0,11.0,10,0.00,,,0.00,Wunderground v.1.15,2013-06-14 19:08:00,
2013-06-14 13:13:00,88.8,25.2,29.53,WNW,287,5.0,6.0,10,0.00,,,0.00,Wunderground v.1.15,2013-06-14 19:13:00,
2013-06-14 13:18:00,88.8,19.9,29.53,NNW,341,5.0,11.0,8,0.00,,,0.00,Wunderground v.1.15,2013-06-14 19:18:00,
2013-06-14 13:23:00,88.4,19.6,29.53,North,5,10.0,12.0,8,0.00,,,0.00,Wunderground v.1.15,2013-06-14 19:23:00,
2013-06-14 13:28:00,87.8,19.1,29.55,NNE,13,0.0,14.0,8,0.00,,,0.00,Wunderground v.1.15,2013-06-14 19:28:00,
2013-06-14 13:33:00,87.8,21.9,29.55,NW,319,0.0,12.0,9,0.00,,,0.00,Wunderground v.1.15,2013-06-14 19:33:00,
2013-06-14 13:38:00,88.2,19.4,29.55,North,355,9.0,13.0,8,0.00,,,0.00,Wunderground v.1.15,2013-06-14 19:38:00,
2013-06-14 13:43:00,88.4,19.6,29.54,WNW,298,10.0,13.0,8,0.00,,,0.00,Wunderground v.1.15,2013-06-14 19:43:00,
2013-06-14 13:48:00,89.0,22.8,29.54,NW,305,3.0,13.0,9,0.00,,,0.00,Wunderground v.1.15,2013-06-14 19:48:00,
2013-06-14 13:53:00,89.3,20.3,29.54,North,5,7.0,12.0,8,0.00,,,0.00,Wunderground v.1.15,2013-06-14 19:53:00,
2013-06-14 13:58:00,88.8,19.9,29.53,North,360,6.0,12.0,8,0.00,,,0.00,Wunderground v.1.15,2013-06-14 19:58:00,
2013-06-14 14:03:00,88.6,19.7,29.53,NNE,32,7.0,11.0,8,0.00,,,0.00,Wunderground v.1.15,2013-06-14 20:03:00,
2013-06-14 14:08:00,89.3,23.0,29.53,NW,320,9.0,14.0,9,0.00,,,0.00,Wunderground v.1.15,2013-06-14 20:08:00,
2013-06-14 14:13:00,89.7,17.4,29.52,North,355,6.0,11.0,7,0.00,,,0.00,Wunderground v.1.15,2013-06-14 20:13:00,
2013-06-14 14:18:00,89.7,20.6,29.52,NNW,342,3.0,11.0,8,0.00,,,0.00,Wunderground v.1.15,2013-06-14 20:18:00,
2013-06-14 14:23:00,89.5,17.3,29.52,NE,35,0.0,10.0,7,0.00,,,0.00,Wunderground v.1.15,2013-06-14 20:23:00,
2013-06-14 14:28:00,89.3,17.1,29.52,ENE,69,2.0,10.0,7,0.00,,,0.00,Wunderground v.1.15,2013-06-14 20:28:00,
2013-06-14 14:33:00,89.5,20.4,29.52,ENE,69,4.0,11.0,8,0.00,,,0.00,Wunderground v.1.15,2013-06-14 20:33:00,
2013-06-14 14:38:00,90.1,20.9,29.52,ENE,71,5.0,11.0,8,0.00,,,0.00,Wunderground v.1.15,2013-06-14 20:38:00,
2013-06-14 14:43:00,90.3,21.0,29.52,NNE,21,5.0,11.0,8,0.00,,,0.00,Wunderground v.1.15,2013-06-14 20:43:00,
2013-06-14 14:48:00,90.3,17.9,29.52,NE,35,0.0,11.0,7,0.00,,,0.00,Wunderground v.1.15,2013-06-14 20:48:00,
2013-06-14 14:53:00,90.3,17.9,29.52,NE,54,6.0,10.0,7,0.00,,,0.00,Wunderground v.1.15,2013-06-14 20:53:00,
2013-06-14 14:58:00,90.3,17.9,29.51,ENE,59,3.0,11.0,7,0.00,,,0.00,Wunderground v.1.15,2013-06-14 20:58:00,
2013-06-14 15:03:00,90.1,17.7,29.51,ENE,67,2.0,10.0,7,0.00,,,0.00,Wunderground v.1.15,2013-06-14 21:03:00,
2013-06-14 15:08:00,90.7,18.2,29.51,NNE,28,2.0,12.0,7,0.00,,,0.00,Wunderground v.1.15,2013-06-14 21:08:00,
2013-06-14 15:13:00,90.7,18.2,29.49,NE,45,0.0,10.0,7,0.00,,,0.00,Wunderground v.1.15,2013-06-14 21:13:00,
2013-06-14 15:18:00,91.4,18.7,29.49,ESE,115,6.0,10.0,7,0.00,,,0.00,Wunderground v.1.15,2013-06-14 21:18:00,
2013-06-14 15:23:00,92.1,19.2,29.49,ESE,119,6.0,9.0,7,0.00,,,0.00,Wunderground v.1.15,2013-06-14 21:23:00,
2013-06-14 15:28:00,92.7,19.6,29.56,ENE,70,7.0,9.0,7,0.00,,,0.00,Wunderground v.1.15,2013-06-14 21:28:00,
2013-06-14 15:33:00,92.3,19.3,29.56,SE,138,5.0,6.0,7,0.00,,,0.00,Wunderground v.1.15,2013-06-14 21:33:00,
2013-06-14 15:38:00,92.7,19.6,29.56,SSE,160,5.0,7.0,7,0.00,,,0.00,Wunderground v.1.15,2013-06-14 21:38:00,
2013-06-14 15:43:00,92.7,19.6,29.54,NE,49,3.0,8.0,7,0.00,,,0.00,Wunderground v.1.15,2013-06-14 21:43:00,
2013-06-14 15:48:00,92.5,19.5,29.54,NNE,21,3.0,8.0,7,0.00,,,0.00,Wunderground v.1.15,2013-06-14 21:48:00,
2013-06-14 15:53:00,92.7,19.6,29.54,NNW,327,2.0,10.0,7,0.00,,,0.00,Wunderground v.1.15,2013-06-14 21:53:00,
2013-06-14 15:58:00,93.2,23.1,29.53,WNW,294,0.0,10.0,8,0.00,,,0.00,Wunderground v.1.15,2013-06-14 21:58:00,
2013-06-14 16:03:00,93.2,20.0,29.53,WNW,294,0.0,3.0,7,0.00,,,0.00,Wunderground v.1.15,2013-06-14 22:03:00,
2013-06-14 16:08:00,93.2,16.4,29.53,NNW,327,4.0,7.0,6,0.00,,,0.00,Wunderground v.1.15,2013-06-14 22:08:00,
2013-06-14 16:13:00,92.9,16.2,29.53,NW,326,4.0,10.0,6,0.00,,,0.00,Wunderground v.1.15,2013-06-14 22:13:00,
2013-06-14 16:18:00,93.2,16.4,29.53,North,350,6.0,11.0,6,0.00,,,0.00,Wunderground v.1.15,2013-06-14 22:18:00,
2013-06-14 16:23:00,93.2,16.4,29.53,NNE,32,0.0,7.0,6,0.00,,,0.00,Wunderground v.1.15,2013-06-14 22:23:00,
2013-06-14 16:28:00,92.9,16.2,29.57,NNE,26,0.0,7.0,6,0.00,,,0.00,Wunderground v.1.15,2013-06-14 22:28:00,
2013-06-14 16:34:00,92.9,16.2,29.57,ENE,69,0.0,11.0,6,0.00,,,0.00,Wunderground v.1.15,2013-06-14 22:34:00,
2013-06-14 16:39:00,93.6,20.3,29.57,SW,217,4.0,15.0,7,0.00,,,0.00,Wunderground v.1.15,2013-06-14 22:39:00,
2013-06-14 16:44:00,92.9,16.2,29.55,WSW,252,5.0,14.0,6,0.00,,,0.00,Wunderground v.1.15,2013-06-14 22:44:00,
2013-06-14 16:49:00,93.2,20.0,29.55,West,264,0.0,14.0,7,0.00,,,0.00,Wunderground v.1.15,2013-06-14 22:49:00,
2013-06-14 16:54:00,93.4,20.1,29.55,SW,236,11.0,14.0,7,0.00,,,0.00,Wunderground v.1.15,2013-06-14 22:54:00,
2013-06-14 16:59:00,93.4,16.5,29.56,West,276,5.0,19.0,6,0.00,,,0.00,Wunderground v.1.15,2013-06-14 22:59:00,
2013-06-14 17:04:00,92.7,19.6,29.56,SSW,204,15.0,20.0,7,0.00,,,0.00,Wunderground v.1.15,2013-06-14 23:04:00,
2013-06-14 17:09:00,91.6,15.2,29.56,SW,218,4.0,20.0,6,0.00,,,0.00,Wunderground v.1.15,2013-06-14 23:09:00,
2013-06-14 17:14:00,91.8,15.4,29.56,West,272,6.0,17.0,6,0.00,,,0.00,Wunderground v.1.15,2013-06-14 23:14:00,
2013-06-14 17:19:00,92.1,19.2,29.56,WNW,283,18.0,18.0,7,0.00,,,0.00,Wunderground v.1.15,2013-06-14 23:19:00,
2013-06-14 17:24:00,91.6,15.2,29.56,WNW,286,8.0,19.0,6,0.00,,,0.00,Wunderground v.1.15,2013-06-14 23:24:00,
2013-06-14 17:29:00,91.2,15.0,29.58,WSW,244,6.0,22.0,6,0.00,,,0.00,Wunderground v.1.15,2013-06-14 23:29:00,
2013-06-14 17:34:00,91.2,18.5,29.58,WNW,296,7.0,13.0,7,0.00,,,0.00,Wunderground v.1.15,2013-06-14 23:34:00,
2013-06-14 17:39:00,91.2,15.0,29.58,NW,306,6.0,20.0,6,0.00,,,0.00,Wunderground v.1.15,2013-06-14 23:39:00,
2013-06-14 17:44:00,90.7,14.6,29.59,WNW,300,10.0,16.0,6,0.00,,,0.00,Wunderground v.1.15,2013-06-14 23:44:00,
2013-06-14 17:49:00,91.0,18.4,29.59,West,265,5.0,16.0,7,0.00,,,0.00,Wunderground v.1.15,2013-06-14 23:49:00,
2013-06-14 17:54:00,91.2,18.5,29.59,West,271,5.0,14.0,7,0.00,,,0.00,Wunderground v.1.15,2013-06-14 23:54:00,
2013-06-14 17:59:00,91.0,14.8,29.58,WSW,243,13.0,17.0,6,0.00,,,0.00,Wunderground v.1.15,2013-06-14 23:59:00,
2013-06-14 18:04:00,90.3,14.3,29.58,West,276,12.0,14.0,6,0.00,,,0.00,Wunderground v.1.15,2013-06-15 00:04:00,
2013-06-14 18:09:00,90.1,17.7,29.58,WNW,283,10.0,14.0,7,0.00,,,0.00,Wunderground v.1.15,2013-06-15 00:09:00,
2013-06-14 18:14:00,90.1,17.7,29.58,WNW,288,5.0,11.0,7,0.00,,,0.00,Wunderground v.1.15,2013-06-15 00:14:00,
2013-06-14 18:19:00,90.5,18.0,29.58,WNW,291,4.0,14.0,7,0.00,,,0.00,Wunderground v.1.15,2013-06-15 00:19:00,
2013-06-14 18:24:00,90.5,18.0,29.58,WSW,244,5.0,10.0,7,0.00,,,0.00,Wunderground v.1.15,2013-06-15 00:24:00,
2013-06-14 18:29:00,89.9,14.0,29.53,WNW,283,9.0,12.0,6,0.00,,,0.00,Wunderground v.1.15,2013-06-15 00:29:00,
2013-06-14 18:34:00,89.7,13.9,29.53,WNW,286,2.0,5.0,6,0.00,,,0.00,Wunderground v.1.15,2013-06-15 00:34:00,
2013-06-14 18:39:00,89.9,17.6,29.53,WNW,291,3.0,9.0,7,0.00,,,0.00,Wunderground v.1.15,2013-06-15 00:39:00,
2013-06-14 18:44:00,89.9,17.6,29.54,WSW,244,4.0,11.0,7,0.00,,,0.00,Wunderground v.1.15,2013-06-15 00:44:00,
2013-06-14 18:49:00,89.7,20.6,29.54,West,274,4.0,11.0,8,0.00,,,0.00,Wunderground v.1.15,2013-06-15 00:49:00,
2013-06-14 18:54:00,89.7,20.6,29.54,NW,304,4.0,10.0,8,0.00,,,0.00,Wunderground v.1.15,2013-06-15 00:54:00,
2013-06-14 18:59:00,89.7,13.9,29.54,West,265,10.0,14.0,6,0.00,,,0.00,Wunderground v.1.15,2013-06-15 00:59:00,
2013-06-14 19:04:00,89.3,17.1,29.54,WNW,292,10.0,14.0,7,0.00,,,0.00,Wunderground v.1.15,2013-06-15 01:04:00,
2013-06-14 19:09:00,88.6,16.6,29.54,West,275,3.0,14.0,7,0.00,,,0.00,Wunderground v.1.15,2013-06-15 01:09:00,
2013-06-14 19:14:00,88.0,12.7,29.55,West,277,4.0,14.0,6,0.00,,,0.00,Wunderground v.1.15,2013-06-15 01:14:00,
2013-06-14 19:19:00,87.6,15.9,29.55,WNW,292,6.0,14.0,7,0.00,,,0.00,Wunderground v.1.15,2013-06-15 01:19:00,
2013-06-14 19:24:00,87.2,15.6,29.55,West,267,10.0,11.0,7,0.00,,,0.00,Wunderground v.1.15,2013-06-15 01:24:00,
2013-06-14 19:29:00,86.7,11.7,29.50,WNW,284,0.0,11.0,6,0.00,,,0.00,Wunderground v.1.15,2013-06-15 01:29:00,
2013-06-14 19:34:00,86.5,15.1,29.50,West,267,1.0,9.0,7,0.00,,,0.00,Wunderground v.1.15,2013-06-15 01:34:00,
2013-06-14 19:39:00,86.3,15.0,29.50,WNW,284,5.0,11.0,7,0.00,,,0.00,Wunderground v.1.15,2013-06-15 01:39:00,
2013-06-14 19:44:00,86.1,17.9,29.50,West,265,1.0,6.0,8,0.00,,,0.00,Wunderground v.1.15,2013-06-15 01:44:00,
2013-06-14 19:49:00,85.5,17.4,29.50,WNW,290,6.0,9.0,8,0.00,,,0.00,Wunderground v.1.15,2013-06-15 01:49:00,
2013-06-14 19:54:00,85.3,17.3,29.50,West,278,0.0,8.0,8,0.00,,,0.00,Wunderground v.1.15,2013-06-15 01:54:00,
2013-06-14 19:59:00,84.9,17.0,29.51,West,265,2.0,8.0,8,0.00,,,0.00,Wunderground v.1.15,2013-06-15 01:59:00,
2013-06-14 20:04:00,84.5,19.4,29.51,WSW,257,0.0,3.0,9,0.00,,,0.00,Wunderground v.1.15,2013-06-15 02:04:00,
2013-06-14 20:09:00,84.0,21.5,29.51,West,262,2.0,3.0,10,0.00,,,0.00,Wunderground v.1.15,2013-06-15 02:09:00,
2013-06-14 20:14:00,82.8,18.2,29.51,WNW,288,2.0,7.0,9,0.00,,,0.00,Wunderground v.1.15,2013-06-15 02:14:00,
2013-06-14 20:19:00,81.6,17.3,29.51,WNW,287,0.0,7.0,9,0.00,,,0.00,Wunderground v.1.15,2013-06-15 02:19:00,
2013-06-14 20:24:00,80.3,16.3,29.51,WNW,287,0.0,2.0,9,0.00,,,0.00,Wunderground v.1.15,2013-06-15 02:24:00,
2013-06-14 20:36:00,77.0,18.4,29.51,WNW,287,0.0,0.0,11,0.00,,,0.00,Wunderground v.1.15,2013-06-15 02:36:00,
2013-06-14 20:41:00,75.6,21.2,29.52,WNW,287,0.0,0.0,13,0.00,,,0.00,Wunderground v.1.15,2013-06-15 02:41:00,
2013-06-14 20:46:00,73.7,24.7,29.52,WNW,287,0.0,0.0,16,0.00,,,0.00,Wunderground v.1.15,2013-06-15 02:46:00,
2013-06-14 20:51:00,71.8,21.6,29.52,WNW,287,0.0,0.0,15,0.00,,,0.00,Wunderground v.1.15,2013-06-15 02:51:00,
2013-06-14 20:56:00,70.6,23.6,29.55,WNW,287,0.0,0.0,17,0.00,,,0.00,Wunderground v.1.15,2013-06-15 02:56:00,
2013-06-14 21:01:00,68.8,23.5,29.55,WNW,287,0.0,0.0,18,0.00,,,0.00,Wunderground v.1.15,2013-06-15 03:01:00,
2013-06-14 21:06:00,67.3,26.0,29.55,WNW,287,0.0,1.0,21,0.00,,,0.00,Wunderground v.1.15,2013-06-15 03:06:00,
2013-06-14 21:11:00,66.1,25.0,29.57,WNW,286,0.0,0.0,21,0.00,,,0.00,Wunderground v.1.15,2013-06-15 03:11:00,
2013-06-14 21:16:00,65.0,28.3,29.57,WNW,286,0.0,0.0,25,0.00,,,0.00,Wunderground v.1.15,2013-06-15 03:16:00,
2013-06-14 21:21:00,64.2,29.5,29.57,WNW,286,0.0,0.0,27,0.00,,,0.00,Wunderground v.1.15,2013-06-15 03:21:00,
2013-06-14 21:26:00,63.4,30.6,29.56,WNW,286,0.0,0.0,29,0.00,,,0.00,Wunderground v.1.15,2013-06-15 03:26:00,
2013-06-14 21:31:00,62.3,28.7,29.56,WNW,286,0.0,0.0,28,0.00,,,0.00,Wunderground v.1.15,2013-06-15 03:31:00,
2013-06-14 21:36:00,61.3,27.9,29.56,WNW,286,0.0,0.0,28,0.00,,,0.00,Wunderground v.1.15,2013-06-15 03:36:00,
2013-06-14 21:41:00,60.4,25.3,29.58,WNW,286,0.0,0.0,26,0.00,,,0.00,Wunderground v.1.15,2013-06-15 03:41:00,
2013-06-14 21:46:00,60.2,26.1,29.58,WNW,286,0.0,0.0,27,0.00,,,0.00,Wunderground v.1.15,2013-06-15 03:46:00,
2013-06-14 21:51:00,59.9,23.9,29.58,WNW,286,0.0,0.0,25,0.00,,,0.00,Wunderground v.1.15,2013-06-15 03:51:00,
2013-06-14 21:56:00,59.5,24.5,29.59,WNW,286,0.0,0.0,26,0.00,,,0.00,Wunderground v.1.15,2013-06-15 03:56:00,
2013-06-14 22:01:00,59.5,23.6,29.59,WNW,286,0.0,0.0,25,0.00,,,0.00,Wunderground v.1.15,2013-06-15 04:01:00,
2013-06-14 22:06:00,59.6,22.7,29.59,WNW,286,0.0,0.0,24,0.00,,,0.00,Wunderground v.1.15,2013-06-15 04:06:00,
2013-06-14 22:11:00,59.0,25.0,29.59,WNW,286,0.0,0.0,27,0.00,,,0.00,Wunderground v.1.15,2013-06-15 04:11:00,
2013-06-14 22:16:00,59.3,23.4,29.59,WNW,286,0.0,0.0,25,0.00,,,0.00,Wunderground v.1.15,2013-06-15 04:16:00,
2013-06-14 22:21:00,59.3,24.4,29.59,WNW,286,0.0,0.0,26,0.00,,,0.00,Wunderground v.1.15,2013-06-15 04:21:00,
2013-06-14 22:26:00,59.6,23.7,29.59,WNW,286,0.0,0.0,25,0.00,,,0.00,Wunderground v.1.15,2013-06-15 04:26:00,
2013-06-14 22:31:00,59.5,21.6,29.59,WNW,286,0.0,0.0,23,0.00,,,0.00,Wunderground v.1.15,2013-06-15 04:31:00,
2013-06-14 22:36:00,59.8,22.9,29.59,WNW,286,0.0,0.0,24,0.00,,,0.00,Wunderground v.1.15,2013-06-15 04:36:00,
2013-06-14 22:42:00,59.5,31.1,29.59,WNW,286,0.0,0.0,34,0.00,,,0.00,Wunderground v.1.15,2013-06-15 04:42:00,
2013-06-14 22:47:00,59.2,26.1,29.59,WNW,286,0.0,0.0,28,0.00,,,0.00,Wunderground v.1.15,2013-06-15 04:47:00,
2013-06-14 22:52:00,59.2,28.5,29.59,WNW,286,0.0,0.0,31,0.00,,,0.00,Wunderground v.1.15,2013-06-15 04:52:00,
2013-06-14 22:57:00,58.7,30.4,29.60,WNW,286,0.0,0.0,34,0.00,,,0.00,Wunderground v.1.15,2013-06-15 04:57:00,
2013-06-14 23:02:00,58.1,28.4,29.60,WNW,286,0.0,0.0,32,0.00,,,0.00,Wunderground v.1.15,2013-06-15 05:02:00,
2013-06-14 23:07:00,57.5,27.8,29.60,WNW,286,0.0,0.0,32,0.00,,,0.00,Wunderground v.1.15,2013-06-15 05:07:00,
2013-06-14 23:12:00,57.6,28.7,29.60,WNW,286,0.0,0.0,33,0.00,,,0.00,Wunderground v.1.15,2013-06-15 05:12:00,
2013-06-14 23:17:00,57.3,35.0,29.60,WNW,286,0.0,4.0,43,0.00,,,0.00,Wunderground v.1.15,2013-06-15 05:17:00,
2013-06-14 23:22:00,57.2,29.1,29.60,WNW,286,0.0,0.0,34,0.00,,,0.00,Wunderground v.1.15,2013-06-15 05:22:00,
2013-06-14 23:27:00,57.0,28.1,29.60,WNW,286,0.0,0.0,33,0.00,,,0.00,Wunderground v.1.15,2013-06-15 05:27:00,
2013-06-14 23:32:00,56.5,29.1,29.60,WNW,286,0.0,0.0,35,0.00,,,0.00,Wunderground v.1.15,2013-06-15 05:32:00,
2013-06-14 23:37:00,55.3,29.4,29.60,WNW,286,0.0,2.0,37,0.00,,,0.00,Wunderground v.1.15,2013-06-15 05:37:00,
2013-06-14 23:42:00,54.5,29.4,29.61,WNW,286,0.0,0.0,38,0.00,,,0.00,Wunderground v.1.15,2013-06-15 05:42:00,
2013-06-14 23:47:00,54.2,28.5,29.61,WNW,286,0.0,0.0,37,0.00,,,0.00,Wunderground v.1.15,2013-06-15 05:47:00,
2013-06-14 23:52:00,54.4,28.0,29.61,WNW,286,0.0,0.0,36,0.00,,,0.00,Wunderground v.1.15,2013-06-15 05:52:00,
2013-06-14 23:57:00,54.5,27.4,29.62,WNW,286,0.0,0.0,35,0.00,,,0.00,Wunderground v.1.15,2013-06-15 05:57:00,